Weather History for South Bend, IN

Change the Weather History Date:

Friday, November 19, 2010

  Actual Average Record
Temperature  
Mean Temperature 37 °F 39 °F  
Max Temperature 47 °F 46 °F 76 °F (1930)
Min Temperature 26 °F 32 °F 12 °F (1903)
Degree Days  
Heating Degree Days 28 26  
Month to date heating degree days 412 414  
Since 1 July heating degree days 865 955  
Cooling Degree Days 0 0  
Month to date cooling degree days 0 0  
Year to date cooling degree days 1022 773  
Moisture  
Dew Point 29 °F    
Average Humidity 76    
Maximum Humidity 96    
Minimum Humidity 56    
Precipitation  
Precipitation 0.00 in 0.11 in 1.58 in (1921)
Month to date precipitation 2.07  
Year to date precipitation 34.19  
Snow  
Snow 0.00 in 0.20 in 4.70 in (1964)
Month to date snowfall 1.3 2.1  
Snow Depth 0.00 in    
Sea Level Pressure  
Sea Level Pressure 30.15 in    
Wind  
Wind Speed 8 mph (SSW)    
Max Wind Speed 17 mph    
Max Gust Speed 29 mph    
Visibility 9 miles    
Events      
T = Trace of Precipitation, MM = Missing Value Source: NWS Daily Summary

Daily Weather History Graph

Daily Weather History Graph

Search for Another Location

Airport:

Trip Planner

Search our weather history database for the weather conditions in past years. The results will help you decide how hot, cold, wet, or windy it might be!

Date:

Astronomy

Nov. 19, 2010 Rise Set
Actual Time 7:39 AM EST 5:21 PM EST
Civil Twilight 7:09 AM EST 5:51 PM EST
Nautical Twilight 6:35 AM EST 6:25 PM EST
Astronomical Twilight 6:02 AM EST 6:58 PM EST
Moon 3:52 PM EST 5:35 AM EST
Length of Visible Light 10h 42m
Length of Day
9h 42m
Waxing Gibbous, 96% of the Moon is Illuminated
Nov 19
Waxing Gibbous
Nov 21
Full
Nov 28
Last Quarter
Dec 5
New
Dec 13
First Quarter

Hourly Weather History & Observations

Time (EST) Temp. Windchill Dew Point Humidity Pressure Visibility Wind Dir Wind Speed Gust Speed Precip Events Conditions
12:54 AM 32.0 °F 28.7 °F 24.8 °F 75% 30.28 in 10.0 mi WSW 3.5 mph - N/A   Clear
1:54 AM 30.9 °F 27.5 °F 24.8 °F 78% 30.27 in 10.0 mi SW 3.5 mph - N/A   Clear
2:54 AM 28.8 °F - 24.1 °F 83% 30.27 in 10.0 mi Calm Calm - N/A   Clear
3:54 AM 27.0 °F 23.0 °F 24.1 °F 89% 30.27 in 10.0 mi South 3.5 mph - N/A   Clear
4:54 AM 25.9 °F 21.7 °F 24.1 °F 93% 30.26 in 8.0 mi South 3.5 mph - N/A   Clear
5:54 AM 25.7 °F - 24.1 °F 94% 30.27 in 8.0 mi Calm Calm - N/A   Clear
6:54 AM 25.7 °F 20.1 °F 22.1 °F 86% 30.24 in 8.0 mi South 4.6 mph - N/A   Clear
7:54 AM 28.0 °F 21.7 °F 23.0 °F 81% 30.24 in 8.0 mi South 5.8 mph - N/A   Clear
8:54 AM 31.6 °F 24.4 °F 24.1 °F 74% 30.22 in 8.0 mi South 8.1 mph - N/A   Clear
9:54 AM 35.1 °F 27.9 °F 27.0 °F 72% 30.22 in 8.0 mi South 9.2 mph - N/A   Clear
10:54 AM 37.4 °F 29.8 °F 27.5 °F 67% 30.19 in 8.0 mi South 11.5 mph 17.3 mph N/A   Mostly Cloudy
11:15 AM 39.2 °F 31.2 °F 28.4 °F 65% 30.17 in 8.0 mi South 13.8 mph 20.7 mph N/A   Scattered Clouds
11:54 AM 39.2 °F 30.2 °F 28.8 °F 66% 30.14 in 10.0 mi South 17.3 mph 25.3 mph N/A   Scattered Clouds
12:12 PM 41.0 °F 33.1 °F 30.2 °F 65% 30.14 in 10.0 mi SSW 15.0 mph 23.0 mph N/A   Mostly Cloudy
12:54 PM 41.7 °F 33.4 °F 29.8 °F 63% 30.12 in 8.0 mi SSW 17.3 mph 26.5 mph N/A   Mostly Cloudy
1:25 PM 42.8 °F 34.8 °F 30.2 °F 61% 30.09 in 8.0 mi SSW 17.3 mph 28.8 mph N/A   Scattered Clouds
1:54 PM 44.2 °F 36.7 °F 30.2 °F 58% 30.06 in 10.0 mi SSW 17.3 mph 28.8 mph N/A   Partly Cloudy
2:54 PM 46.4 °F 41.1 °F 31.5 °F 56% 30.04 in 10.0 mi SSW 11.5 mph 20.7 mph N/A   Clear
3:54 PM 46.9 °F - 32.2 °F 57% 30.01 in 10.0 mi South 13.8 mph 20.7 mph N/A   Clear
4:54 PM 46.6 °F - 32.2 °F 57% 30.02 in 10.0 mi SSW 11.5 mph - N/A   Clear
5:54 PM 43.9 °F 40.5 °F 32.4 °F 64% 30.02 in 10.0 mi SSW 5.8 mph - N/A   Clear
6:54 PM 42.1 °F 38.4 °F 32.0 °F 67% 30.04 in 10.0 mi SW 5.8 mph - N/A   Clear
7:54 PM 41.2 °F 37.3 °F 32.0 °F 70% 30.05 in 10.0 mi SSW 5.8 mph - N/A   Clear
8:54 PM 40.8 °F 35.0 °F 32.7 °F 73% 30.06 in 10.0 mi SSW 9.2 mph - N/A   Clear
9:54 PM 40.8 °F 35.0 °F 32.7 °F 73% 30.06 in 10.0 mi SW 9.2 mph - N/A   Clear
10:54 PM 39.9 °F 33.9 °F 34.0 °F 79% 30.08 in 10.0 mi SW 9.2 mph - N/A   Clear
11:54 PM 38.7 °F 34.3 °F 33.8 °F 83% 30.09 in 10.0 mi SW 5.8 mph - N/A   Clear